• In United Kingdom
  • List of Countries
  • For 7 days
  • Water Temperature
  • Satellite Maps
  • Weather Map
  • Weather Widgets
  • user-avatar
    Login

    Hourly Weather Gold Coast

    Today, 19 January, Friday

    Time Temperature Precipitation Wind Pressure Humidity
    00:00 +18°C° 0 mm 3 mps 758 mmHg 74%
    01:00 +18°C° 0 mm 3 mps 758 mmHg 75%
    02:00 +17°C° 0 mm 3 mps 758 mmHg 75%
    03:00 +17°C° 0 mm 3 mps 758 mmHg 75%
    04:00 +17°C° 0 mm 3 mps 757 mmHg 75%
    05:00 +18°C° 0 mm 2 mps 757 mmHg 68%
    06:00 +20°C° 0 mm 2 mps 757 mmHg 62%
    07:00 +23°C° 0 mm 2 mps 757 mmHg 55%
    08:00 +26°C° 0 mm 2 mps 757 mmHg 46%
    09:00 +30°C° 0 mm 2 mps 757 mmHg 36%
    10:00 +33°C° 0 mm 3 mps 757 mmHg 28%
    11:00 +34°C° 0 mm 3 mps 757 mmHg 26%
    12:00 +35°C° 0 mm 4 mps 756 mmHg 24%
    13:00 +36°C° 0 mm 4 mps 756 mmHg 21%
    14:00 +35°C° 0 mm 4 mps 755 mmHg 25%
    15:00 +35°C° 0 mm 5 mps 755 mmHg 28%
    16:00 +33°C° 0 mm 4 mps 755 mmHg 32%
    17:00 +30°C° 0 mm 4 mps 755 mmHg 39%
    18:00 +27°C° 0 mm 4 mps 756 mmHg 47%
    19:00 +25°C° 0 mm 4 mps 756 mmHg 54%
    20:00 +22°C° 0 mm 4 mps 756 mmHg 58%
    21:00 +21°C° 0 mm 3 mps 756 mmHg 63%
    22:00 +20°C° 0 mm 3 mps 756 mmHg 67%
    23:00 +20°C° 0 mm 3 mps 756 mmHg 69%

    Tomorrow, 20 January, Saturday

    Time Temperature Precipitation Wind Pressure Humidity
    00:00 +19°C° 0 mm 3 mps 755 mmHg 70%
    01:00 +18°C° 0 mm 3 mps 755 mmHg 72%
    02:00 +18°C° 0 mm 4 mps 755 mmHg 74%
    03:00 +18°C° 0 mm 4 mps 755 mmHg 76%
    04:00 +17°C° 0 mm 4 mps 755 mmHg 78%
    05:00 +19°C° 0 mm 4 mps 755 mmHg 74%
    06:00 +20°C° 0 mm 4 mps 756 mmHg 70%
    07:00 +22°C° 0 mm 4 mps 756 mmHg 65%
    08:00 +25°C° 0 mm 4 mps 756 mmHg 58%
    09:00 +28°C° 0 mm 5 mps 756 mmHg 50%
    10:00 +30°C° 0 mm 5 mps 756 mmHg 43%
    11:00 +33°C° 0 mm 5 mps 755 mmHg 40%
    12:00 +34°C° 0 mm 5 mps 755 mmHg 38%
    13:00 +35°C° 0 mm 6 mps 754 mmHg 36%
    14:00 +34°C° 0 mm 6 mps 754 mmHg 38%
    15:00 +34°C° 0 mm 6 mps 754 mmHg 41%
    16:00 +33°C° 0 mm 6 mps 753 mmHg 43%
    17:00 +30°C° 0 mm 6 mps 754 mmHg 52%
    18:00 +28°C° 0 mm 6 mps 754 mmHg 61%
    19:00 +26°C° 0 mm 5 mps 755 mmHg 70%
    20:00 +25°C° 0 mm 5 mps 755 mmHg 76%
    21:00 +23°C° 0 mm 5 mps 756 mmHg 83%
    22:00 +22°C° 0 mm 5 mps 756 mmHg 89%
    23:00 +21°C° 0 mm 5 mps 756 mmHg 89%

    Day after tomorrow, 21 January, Sunday

    Time Temperature Precipitation Wind Pressure Humidity
    00:00 +21°C° 0 mm 5 mps 755 mmHg 90%
    01:00 +21°C° 0 mm 5 mps 755 mmHg 90%
    02:00 +21°C° 0 mm 5 mps 755 mmHg 91%
    03:00 +21°C° 0 mm 5 mps 754 mmHg 91%
    04:00 +21°C° 0 mm 5 mps 754 mmHg 91%
    05:00 +22°C° 0 mm 5 mps 755 mmHg 87%
    06:00 +23°C° 0 mm 5 mps 755 mmHg 83%
    07:00 +25°C° 0 mm 4 mps 755 mmHg 79%
    08:00 +27°C° 0.1 mm 4 mps 756 mmHg 69%
    09:00 +29°C° 0.1 mm 4 mps 756 mmHg 60%
    10:00 +32°C° 0.1 mm 4 mps 756 mmHg 50%
    11:00 +32°C° 0 mm 4 mps 755 mmHg 50%
    12:00 +33°C° 0 mm 4 mps 755 mmHg 49%
    13:00 +33°C° 0 mm 4 mps 754 mmHg 49%
    14:00 +33°C° 0 mm 4 mps 754 mmHg 50%
    15:00 +33°C° 0 mm 4 mps 753 mmHg 51%
    16:00 +33°C° 0 mm 4 mps 753 mmHg 52%
    17:00 +30°C° 0 mm 4 mps 753 mmHg 60%
    18:00 +28°C° 0 mm 4 mps 754 mmHg 68%
    19:00 +26°C° 0 mm 4 mps 754 mmHg 76%
    20:00 +25°C° 0 mm 3 mps 755 mmHg 81%
    21:00 +24°C° 0 mm 3 mps 755 mmHg 85%
    22:00 +22°C° 0 mm 3 mps 756 mmHg 90%
    23:00 +23°C° 0 mm 2 mps 755 mmHg 90%

    22 January, Monday

    Time Temperature Precipitation Wind Pressure Humidity
    00:00 +23°C° 0 mm 2 mps 755 mmHg 91%
    01:00 +23°C° 0 mm 2 mps 755 mmHg 92%
    02:00 +23°C° 0.1 mm 2 mps 755 mmHg 93%
    03:00 +21°C° 0.1 mm 2 mps 754 mmHg 93%
    04:00 +21°C° 0.1 mm 2 mps 754 mmHg 94%
    05:00 +23°C° 0 mm 2 mps 755 mmHg 89%
    06:00 +24°C° 0 mm 1 mps 755 mmHg 85%
    07:00 +25°C° 0 mm 1 mps 755 mmHg 80%
    08:00 +28°C° 0 mm 1 mps 755 mmHg 70%
    09:00 +30°C° 0 mm 2 mps 755 mmHg 59%
    10:00 +32°C° 0 mm 2 mps 755 mmHg 48%
    11:00 +34°C° 0 mm 2 mps 754 mmHg 46%
    12:00 +35°C° 0 mm 3 mps 754 mmHg 44%
    13:00 +35°C° 0 mm 3 mps 753 mmHg 42%
    14:00 +34°C° 0 mm 3 mps 753 mmHg 45%
    15:00 +34°C° 0 mm 4 mps 753 mmHg 47%
    16:00 +33°C° 0 mm 4 mps 752 mmHg 50%
    17:00 +30°C° 0 mm 4 mps 753 mmHg 57%
    18:00 +28°C° 0 mm 4 mps 753 mmHg 64%
    19:00 +27°C° 0 mm 4 mps 754 mmHg 72%
    20:00 +26°C° 0 mm 3 mps 754 mmHg 77%
    21:00 +25°C° 0 mm 3 mps 755 mmHg 82%
    22:00 +24°C° 0 mm 3 mps 755 mmHg 87%
    23:00 +24°C° 0 mm 3 mps 755 mmHg 88%

    23 January, Tuesday

    Time Temperature Precipitation Wind Pressure Humidity
    00:00 +23°C° 0 mm 2 mps 754 mmHg 90%
    01:00 +23°C° 0 mm 2 mps 754 mmHg 91%
    02:00 +23°C° 0 mm 2 mps 754 mmHg 92%
    03:00 +22°C° 0 mm 1 mps 754 mmHg 93%
    04:00 +22°C° 0 mm 1 mps 754 mmHg 93%
    05:00 +23°C° 0 mm 1 mps 754 mmHg 89%
    06:00 +25°C° 0 mm 1 mps 754 mmHg 84%
    07:00 +26°C° 0 mm 1 mps 755 mmHg 79%
    08:00 +28°C° 0 mm 1 mps 755 mmHg 70%
    09:00 +30°C° 0 mm 2 mps 754 mmHg 61%
    10:00 +31°C° 0 mm 3 mps 754 mmHg 52%
    11:00 +33°C° 0 mm 3 mps 754 mmHg 50%
    12:00 +34°C° 0 mm 3 mps 753 mmHg 48%
    13:00 +34°C° 0 mm 4 mps 753 mmHg 46%
    14:00 +34°C° 0 mm 4 mps 753 mmHg 47%
    15:00 +34°C° 0 mm 4 mps 752 mmHg 48%
    16:00 +33°C° 0 mm 5 mps 752 mmHg 49%
    17:00 +30°C° 0 mm 4 mps 753 mmHg 56%
    18:00 +29°C° 0 mm 4 mps 753 mmHg 64%
    19:00 +27°C° 0 mm 4 mps 754 mmHg 72%
    20:00 +26°C° 0 mm 4 mps 754 mmHg 77%
    21:00 +25°C° 0 mm 4 mps 754 mmHg 83%
    22:00 +24°C° 0 mm 3 mps 754 mmHg 89%
    23:00 +24°C° 0 mm 3 mps 754 mmHg 89%

    24 January, Wednesday

    Time Temperature Precipitation Wind Pressure Humidity
    00:00 +24°C° 0 mm 3 mps 753 mmHg 90%
    01:00 +24°C° 0 mm 2 mps 753 mmHg 90%
    02:00 +24°C° 0 mm 2 mps 753 mmHg 91%
    03:00 +24°C° 0 mm 2 mps 753 mmHg 91%
    04:00 +24°C° 0 mm 2 mps 753 mmHg 91%
    05:00 +24°C° 0 mm 2 mps 753 mmHg 87%
    06:00 +25°C° 0 mm 2 mps 754 mmHg 83%
    07:00 +26°C° 0 mm 2 mps 754 mmHg 79%
    08:00 +28°C° 0 mm 3 mps 754 mmHg 70%
    09:00 +30°C° 0 mm 3 mps 754 mmHg 61%
    10:00 +33°C° 0 mm 4 mps 754 mmHg 52%
    11:00 +33°C° 0 mm 4 mps 753 mmHg 51%
    12:00 +33°C° 0 mm 4 mps 753 mmHg 50%
    13:00 +34°C° 0 mm 5 mps 752 mmHg 49%
    14:00 +34°C° 0.1 mm 5 mps 752 mmHg 51%
    15:00 +33°C° 0.1 mm 5 mps 752 mmHg 53%
    16:00 +33°C° 0.1 mm 5 mps 752 mmHg 55%
    17:00 +30°C° 0 mm 5 mps 752 mmHg 63%
    18:00 +29°C° 0 mm 5 mps 752 mmHg 71%
    19:00 +27°C° 0 mm 5 mps 753 mmHg 79%
    20:00 +26°C° 0 mm 5 mps 753 mmHg 83%
    21:00 +26°C° 0 mm 4 mps 753 mmHg 88%
    22:00 +25°C° 0 mm 4 mps 754 mmHg 92%
    23:00 +25°C° 0.1 mm 4 mps 753 mmHg 93%
    Show more